Погода в Андауайласе

Перу     13°39′30″S   73°23′28″W
темп.,
°C
ветер,
м/с
пор.,
м/с
влажн.,
%
обл.,
%
осадки,
мм/ч
давл.,
гПа
погр.,
м
17 апреля, сб
сб1701:00+5вюв228814 0.4 102012
04:00+4вюв119077 0.0 101963
07:00+6вюв118434 0.0 1021115
10:00+11ссз327373 0.0 1019871
13:00+14ссз325923 0.3 10141319
16:00+14с326011 0.3 10111019
19:00+7в32894 2.3 101720
22:00+6в229010 1.1 102015
18 апреля, вс
вс1801:00+5всв229651 1.3 102080
04:00+5св119465 0.1 101944
07:00+7юз008597 0.1 1021187
10:00+10сз2270100 0.0 1019924
13:00+13сз226046 0.2 10141273
16:00+14ссз325539 0.3 10101306
19:00+7вюв338599 3.1 101623
22:00+7всв2288100 1.5 101913
19 апреля, пн
пн1901:00+6всв129485 3.8 101957
04:00+5св119764 0.9 101945
07:00+6св118982 1.2 1021259
10:00+9ссз218079 0.0 1021610
13:00+12сз216493 0.1 10161141
16:00+13с33604 0.2 10111132
19:00+7в339099 1.9 101736
22:00+6вюв22823 1.3 102016
20 апреля, вт
вт2001:00+4всв228811 1.4 102023
04:00+4вюв118922 0.0 102014
07:00+6всв118639 0.1 102285
10:00+10ссз327341 0.0 1020786
13:00+13ссз325812 0.3 10141379
16:00+13с225723 0.4 10111348
19:00+7в2288100 1.4 101715
22:00+6ю1186100 1.2 102011
21 апреля, ср
ср2101:00+5юв118797 1.5 102011
04:00+4в118974 0.0 102014
07:00+6юв1185100 0.0 102160
10:00+11ссз326890 0.0 1018983
13:00+14с32544 0.4 10121521
16:00+14с325735 0.4 10101303
19:00+7вюв2291100 3.3 101721
22:00+7юз1194100 2.8 102063